Wind_Speed
36 37 38 38 39 39 39 39 38 39 39 39 39 39 39 40 40 41 41 41 40 40 40 41 41 42 42 42 41 41 42 42 42 42 42 42 42 42 42 42 42 41 41
37 37 37 38 39 40 40 40 40 40 40 40 40 41 40 40 41 42 42 41 42 42 41 41 42 42 42 42 43 42 42 43 43 43 43 43 43 43 43 43 42 42 41
36 37 37 38 39 39 40 40 40 41 41 42 42 42 42 42 42 42 42 42 43 43 43 43 43 44 44 44 44 44 44 44 44 45 45 44 44 44 44 44 43 43 43
36 36 37 38 38 39 40 40 41 41 42 42 43 43 43 44 44 43 43 43 43 43 44 44 45 45 45 45 45 45 45 46 46 45 45 46 46 45 45 45 45 45 45
36 37 38 38 39 39 39 40 40 41 42 43 43 44 44 44 44 44 44 45 44 43 44 44 45 45 45 46 46 46 47 47 47 47 47 47 47 47 46 45 46 47 47
35 36 37 38 39 40 40 40 41 42 43 44 44 44 45 45 45 45 45 45 45 44 44 45 45 45 46 47 47 47 48 48 49 49 49 49 49 49 49 48 47 47 48
35 35 36 37 38 40 41 42 42 43 44 44 44 45 46 47 46 46 46 46 45 45 45 46 46 46 46 47 48 48 49 49 49 49 49 49 50 50 50 50 49 49 49
36 36 36 37 38 40 41 43 44 44 44 45 45 46 47 47 47 47 47 46 47 47 47 48 47 47 47 47 48 49 49 49 49 50 51 51 51 51 50 50 50 50 50
36 37 37 38 39 40 41 43 43 44 44 44 45 46 47 47 47 47 48 48 48 48 48 48 48 48 48 47 47 48 49 50 50 51 51 52 52 51 52 51 51 50 50
35 36 37 37 38 39 40 41 42 42 43 44 44 45 45 46 47 48 48 48 48 48 48 47 48 49 49 48 48 48 49 50 51 52 52 53 53 52 52 52 51 51 50
35 36 36 37 37 38 38 39 40 41 42 42 43 44 44 45 45 46 47 47 48 48 48 48 48 49 49 50 50 50 50 50 51 51 52 52 52 52 52 51 51 52 51
35 36 36 36 37 37 37 38 39 40 40 41 42 43 44 44 45 46 46 47 47 47 47 48 48 49 49 50 50 49 50 50 50 51 52 53 52 52 52 51 52 52 52
35 36 36 36 36 36 37 38 38 39 40 40 41 42 43 43 44 44 44 45 46 46 47 47 48 48 48 49 50 49 49 49 49 50 51 52 52 52 52 52 52 52 52
34 35 35 35 35 36 36 37 38 39 40 40 40 41 41 42 43 43 44 44 44 45 46 46 47 47 48 48 48 48 48 48 48 48 49 50 51 52 53 53 52 52 52
34 34 34 34 34 35 36 37 38 38 38 38 38 38 39 39 40 41 42 43 43 44 45 45 46 46 47 47 47 47 47 47 46 46 47 48 49 50 51 52 52 51 52
33 34 35 35 35 35 36 37 37 37 37 36 36 37 38 38 39 40 41 41 42 43 43 43 43 44 44 45 46 46 46 46 44 44 44 45 46 47 47 49 49 49 49
32 34 35 35 35 35 35 35 36 36 37 37 37 37 38 38 39 40 40 41 41 42 42 42 42 43 43 44 44 44 45 45 43 42 42 42 43 44 44 46 46 47 47
31 32 33 34 34 34 34 34 35 35 36 36 37 38 39 39 39 39 39 40 40 40 41 42 42 42 42 43 43 44 44 44 43 42 42 42 42 41 42 43 44 45 46
31 31 32 32 33 34 34 34 34 35 35 36 37 37 38 38 38 38 39 39 39 40 40 41 41 41 41 41 41 42 42 42 42 43 43 42 41 40 41 41 43 44 45
31 32 32 32 32 33 34 35 35 35 36 36 36 37 37 37 38 38 38 38 38 39 40 40 40 41 40 40 40 40 41 41 41 41 42 42 41 40 41 41 42 43 43
31 32 32 32 33 33 34 34 34 35 35 35 36 36 37 37 37 36 37 37 37 37 38 38 38 38 39 39 39 38 39 39 40 40 41 41 41 41 41 40 41 41 41
32 32 32 32 32 33 33 33 33 34 34 34 35 35 36 36 35 35 35 35 35 36 37 37 37 37 37 36 36 36 36 37 38 39 39 40 41 41 41 40 39 39 39
32 32 32 31 31 32 31 31 31 32 32 33 34 34 34 34 34 35 35 34 34 35 35 35 35 35 35 34 34 35 35 36 37 37 38 39 40 40 40 40 39 39 38
31 31 31 31 31 31 31 31 31 32 32 32 33 33 33 34 34 33 33 33 33 33 33 33 33 33 33 33 33 34 34 35 35 36 36 37 37 37 37 37 38 38 37
30 30 31 31 31 31 30 30 31 31 31 32 32 32 32 33 33 33 32 32 32 32 32 32 32 31 32 32 33 33 33 34 34 34 34 34 34 34 35 36 36 36 36
29 30 30 31 31 30 30 30 31 30 31 31 31 31 31 32 32 31 31 31 31 31 31 31 31 31 31 31 32 32 32 32 32 32 32 32 32 33 33 33 33 33 33
Wind_Direction
245 246 248 249 250 251 252 254 255 257 259 259 260 261 263 263 263 264 266 266 267 267 267 266 266 266 266 266 267 267 268 269 270 270 270 271 271 271 271 271 270 269 269
245 247 249 250 251 252 253 254 255 257 259 260 260 260 262 263 263 264 265 267 267 267 267 267 267 267 267 267 268 268 269 269 270 270 269 269 269 270 270 270 270 270 269
247 249 250 251 252 254 254 254 256 258 259 260 260 261 261 262 263 265 265 267 267 266 266 266 267 268 268 268 268 268 269 270 270 270 270 269 269 269 270 270 270 269 269
249 250 252 253 254 255 256 256 257 258 259 260 261 261 261 262 263 264 265 266 267 266 266 266 267 267 268 268 267 267 269 269 270 269 270 269 269 269 269 269 269 269 269
250 251 253 254 255 256 257 258 259 259 260 260 261 261 262 263 263 264 265 266 267 267 266 266 266 267 267 268 268 269 269 269 269 270 270 269 269 269 269 269 269 269 269
252 253 254 255 256 257 258 259 260 260 260 260 260 261 261 262 263 264 265 265 265 267 267 267 267 267 267 268 269 269 270 270 269 270 270 270 270 270 270 269 268 268 267
253 254 256 257 258 259 260 260 260 260 260 260 261 262 262 262 263 264 264 265 265 266 267 268 269 267 267 268 269 269 270 270 269 269 269 270 270 270 270 269 268 267 266
255 257 258 259 260 261 261 260 260 260 261 261 262 263 263 263 262 263 264 265 266 267 268 268 269 269 269 269 270 269 269 269 269 269 269 269 270 270 269 269 268 267 267
258 259 260 261 262 262 262 262 261 261 261 262 263 262 263 263 263 263 264 266 267 267 268 268 268 269 270 270 270 270 270 270 269 269 269 269 269 269 269 268 268 268 267
259 260 261 262 263 263 263 262 263 262 263 263 263 263 263 263 264 264 265 266 267 267 268 269 269 269 269 271 271 271 271 270 269 269 269 269 268 269 269 269 268 268 267
260 261 262 263 263 263 263 263 263 264 264 264 264 264 264 264 264 264 265 265 266 267 267 268 269 270 270 271 271 272 272 271 269 270 269 268 267 268 268 268 268 268 268
261 262 262 262 262 263 263 263 264 264 264 265 265 265 264 264 264 265 266 266 266 267 267 267 269 270 271 271 271 272 273 272 270 270 269 268 268 267 267 268 269 269 269
262 262 261 261 261 262 262 264 264 265 265 265 266 265 265 264 264 265 266 267 268 268 268 269 270 271 271 272 272 272 273 272 271 270 270 268 268 268 267 268 269 269 269
262 262 262 261 261 261 263 264 265 266 266 266 266 266 266 266 266 266 267 268 269 269 269 270 271 272 273 273 274 274 275 272 272 271 270 269 268 268 267 268 268 268 269
263 263 262 261 262 263 263 264 264 265 266 267 266 266 267 268 269 269 269 270 270 271 272 273 273 274 274 274 274 274 274 274 273 272 271 269 269 268 267 267 267 268 269
263 263 263 264 265 265 266 265 264 264 265 266 266 266 268 269 269 270 270 271 271 272 273 274 274 275 276 276 275 274 273 273 273 273 272 271 271 269 269 267 268 268 269
266 266 265 266 267 267 267 266 265 264 265 266 267 267 267 268 270 271 271 271 272 273 273 274 275 276 277 277 276 275 275 273 274 273 271 271 272 271 270 269 268 268 269
267 267 267 267 267 266 266 266 266 265 265 266 268 268 268 269 270 272 272 272 272 273 274 275 276 277 278 278 277 275 275 274 273 272 271 272 272 272 272 271 270 270 270
268 268 269 269 268 267 267 267 266 266 266 268 269 269 269 269 270 271 272 272 272 273 275 276 277 278 278 279 278 276 275 274 273 272 272 272 272 272 272 272 272 271 271
270 270 271 271 270 269 269 269 268 268 268 269 270 269 269 270 271 271 271 272 273 274 276 277 278 278 278 278 278 276 275 274 273 272 271 272 272 273 273 274 274 273 273
271 272 272 272 272 271 270 269 269 269 269 269 270 270 270 270 271 272 272 272 274 275 277 278 279 279 278 278 278 278 276 275 273 272 271 270 272 274 275 277 277 276 275
271 272 272 273 272 272 271 270 269 269 269 270 270 270 270 270 270 271 272 272 273 275 277 279 280 279 279 279 278 278 277 275 275 274 273 272 273 275 277 278 278 278 277
271 271 272 272 272 272 271 271 271 271 271 270 270 271 271 270 271 271 272 273 274 276 278 279 279 279 279 278 278 278 278 277 276 276 276 276 276 276 278 279 279 278 278
271 271 271 271 272 272 272 272 272 272 272 272 272 271 271 271 272 271 272 274 276 277 278 279 279 277 277 278 279 279 279 279 278 278 278 278 278 278 280 280 280 279 277
271 271 271 271 271 271 272 273 274 273 272 272 273 272 272 273 272 272 273 274 276 277 278 278 278 277 278 279 280 281 281 280 280 280 279 280 280 280 280 280 280 279 278
271 271 271 272 271 272 272 273 274 274 273 273 273 273 273 273 273 273 274 275 276 277 279 279 279 279 280 282 283 283 282 282 281 280 279 279 280 280 280 281 281 280 280
Height
5744 5746 5748 5750 5752 5754 5756 5758 5759 5761 5762 5763 5764 5765 5766 5766 5767 5767 5768 5768 5768 5769 5769 5769 5769 5770 5770 5770 5770 5770 5770 5770 5769 5769 5769 5769 5768 5767 5766 5765 5764 5764 5764
5734 5737 5739 5741 5743 5744 5746 5748 5750 5751 5752 5754 5755 5756 5756 5757 5757 5758 5758 5758 5759 5759 5759 5759 5759 5760 5760 5760 5760 5760 5760 5759 5758 5758 5758 5758 5759 5757 5756 5755 5754 5753 5753
5725 5727 5729 5731 5733 5735 5736 5738 5740 5741 5742 5743 5744 5745 5746 5746 5747 5747 5748 5748 5748 5748 5748 5748 5748 5749 5749 5749 5749 5749 5749 5748 5747 5747 5746 5746 5746 5747 5746 5745 5744 5743 5743
5716 5718 5720 5722 5723 5725 5726 5728 5729 5730 5732 5733 5734 5735 5736 5736 5737 5737 5737 5737 5737 5737 5737 5737 5737 5737 5737 5737 5737 5737 5737 5737 5736 5735 5735 5734 5734 5734 5735 5734 5733 5732 5732
5707 5709 5710 5712 5713 5715 5716 5718 5719 5720 5721 5721 5722 5723 5724 5725 5725 5726 5726 5726 5726 5726 5726 5726 5726 5726 5725 5725 5725 5725 5725 5724 5724 5724 5723 5723 5722 5722 5723 5723 5722 5721 5721
5697 5699 5701 5702 5703 5705 5706 5707 5708 5708 5709 5710 5711 5712 5713 5714 5714 5715 5715 5715 5715 5715 5714 5714 5713 5713 5713 5713 5713 5713 5712 5712 5712 5711 5711 5711 5711 5710 5710 5711 5711 5710 5710
5688 5689 5691 5692 5693 5694 5695 5696 5697 5697 5698 5699 5700 5701 5701 5702 5703 5703 5703 5703 5704 5703 5703 5702 5701 5701 5701 5700 5700 5700 5700 5699 5699 5699 5698 5698 5698 5698 5697 5698 5698 5698 5698
5678 5679 5680 5681 5682 5683 5684 5685 5685 5686 5687 5688 5688 5689 5689 5690 5691 5691 5692 5692 5692 5692 5691 5690 5689 5689 5688 5688 5688 5687 5687 5686 5686 5686 5685 5685 5685 5685 5684 5685 5685 5686 5686
5668 5669 5670 5671 5671 5672 5672 5673 5674 5674 5675 5676 5676 5677 5677 5678 5679 5679 5680 5680 5680 5680 5679 5679 5678 5677 5676 5675 5675 5674 5674 5673 5673 5673 5672 5672 5672 5671 5671 5671 5672 5673 5673
5658 5658 5659 5660 5660 5661 5661 5662 5662 5663 5663 5664 5665 5665 5665 5666 5666 5667 5667 5667 5667 5667 5667 5666 5665 5665 5664 5663 5662 5661 5661 5660 5660 5659 5659 5658 5658 5658 5657 5658 5658 5659 5660
5647 5648 5649 5649 5649 5650 5650 5651 5651 5652 5652 5653 5653 5653 5653 5654 5654 5655 5655 5655 5655 5654 5654 5653 5653 5652 5651 5650 5649 5649 5648 5647 5646 5646 5645 5645 5644 5644 5644 5644 5644 5645 5646
5637 5638 5638 5639 5639 5640 5640 5640 5641 5641 5641 5641 5642 5642 5642 5642 5642 5642 5642 5642 5642 5641 5641 5640 5640 5639 5638 5638 5637 5636 5635 5634 5633 5632 5632 5631 5631 5631 5631 5631 5631 5631 5631
5627 5627 5628 5629 5629 5630 5630 5630 5630 5630 5630 5630 5630 5630 5630 5630 5630 5630 5630 5630 5629 5629 5628 5627 5627 5626 5626 5625 5623 5623 5622 5621 5619 5618 5618 5617 5617 5617 5617 5617 5617 5618 5618
5617 5617 5618 5619 5619 5620 5620 5620 5620 5619 5619 5619 5619 5619 5619 5619 5619 5619 5619 5618 5617 5617 5616 5615 5614 5614 5613 5612 5611 5610 5609 5608 5606 5605 5604 5604 5603 5603 5603 5603 5604 5604 5604
5608 5608 5608 5609 5609 5609 5609 5609 5609 5609 5609 5609 5609 5609 5608 5608 5608 5608 5607 5607 5606 5605 5604 5603 5602 5601 5601 5600 5599 5597 5596 5595 5594 5592 5591 5590 5590 5589 5589 5590 5590 5590 5590
5598 5598 5598 5599 5599 5599 5599 5599 5598 5598 5598 5598 5598 5598 5598 5597 5597 5597 5596 5595 5594 5593 5592 5591 5590 5589 5588 5587 5586 5585 5584 5583 5582 5580 5579 5578 5577 5577 5576 5576 5577 5577 5577
5589 5589 5589 5589 5589 5589 5588 5588 5588 5588 5588 5588 5588 5587 5587 5587 5586 5586 5585 5584 5583 5582 5580 5580 5579 5578 5576 5575 5574 5572 5571 5571 5570 5568 5567 5566 5565 5564 5564 5564 5564 5564 5564
5580 5579 5579 5579 5579 5578 5578 5578 5578 5577 5577 5577 5577 5576 5576 5576 5575 5574 5573 5572 5571 5570 5569 5568 5567 5566 5565 5563 5562 5560 5559 5559 5558 5557 5556 5555 5554 5553 5552 5552 5551 5551 5551
5570 5570 5570 5569 5569 5568 5568 5568 5567 5567 5567 5566 5566 5565 5565 5565 5564 5563 5562 5561 5560 5559 5558 5557 5555 5554 5553 5551 5550 5548 5547 5546 5546 5545 5544 5543 5543 5541 5541 5540 5540 5539 5538
5561 5560 5560 5559 5559 5558 5558 5558 5557 5557 5556 5556 5555 5555 5554 5553 5553 5552 5551 5550 5549 5548 5547 5545 5544 5543 5541 5540 5538 5537 5536 5535 5534 5534 5533 5532 5531 5530 5529 5528 5527 5527 5526
5552 5551 5550 5549 5549 5548 5548 5547 5547 5546 5546 5545 5545 5544 5543 5543 5542 5541 5540 5539 5539 5537 5536 5535 5533 5532 5530 5529 5527 5525 5524 5523 5522 5522 5521 5520 5519 5518 5517 5516 5515 5514 5513
5542 5541 5541 5540 5539 5538 5537 5537 5536 5536 5535 5535 5534 5533 5533 5532 5532 5531 5530 5529 5528 5527 5525 5524 5522 5521 5519 5518 5516 5515 5513 5512 5511 5511 5510 5509 5508 5507 5506 5504 5503 5502 5501
5532 5532 5531 5530 5529 5528 5527 5527 5526 5525 5525 5524 5524 5523 5522 5522 5521 5521 5520 5519 5518 5517 5515 5514 5512 5511 5509 5508 5506 5505 5503 5501 5500 5499 5498 5498 5497 5496 5494 5493 5492 5490 5489
5523 5522 5521 5521 5520 5519 5518 5517 5516 5515 5515 5514 5513 5513 5512 5511 5511 5510 5510 5509 5508 5506 5505 5504 5502 5501 5499 5498 5496 5495 5493 5491 5490 5489 5488 5487 5486 5485 5484 5482 5480 5479 5478
5513 5513 5512 5511 5510 5509 5508 5508 5507 5506 5505 5504 5503 5503 5502 5501 5500 5500 5500 5499 5498 5497 5496 5494 5493 5491 5490 5488 5487 5485 5483 5482 5480 5479 5478 5477 5476 5474 5473 5471 5470 5468 5467
5504 5503 5502 5501 5501 5500 5499 5498 5497 5496 5495 5495 5494 5493 5492 5491 5491 5491 5490 5489 5489 5487 5486 5485 5483 5482 5481 5479 5477 5475 5474 5472 5471 5469 5468 5467 5466 5464 5463 5461 5460 5458 5457